Location: Ellerstadt
(49.4644°N, 8.2615°E)
Time: 09:52:29
(UTC+00:00)

Resurs 01 Rocket - Pass Details

Date: 03 March 2021
Orbit: 635 x 643 km, 98.0° (Epoch: 12 April)

Event Time Altitude Azimuth Distance (km) Brightness Sun altitude
Exits shadow 20:50:14 24° 301° (WNW) 1,334 3.8 -34.4°
Drops below altitude 10° 20:52:33 10° 327° (NNW) 2,034 4.9 -34.7°
Sets 20:55:00 0° 338° (NNW) 2,949 5.8 -35.0°
